| time (UTC) | temp F | wind direction | speed MPH | gust MPH | rain 1hr in | rain 24hr in | rain mn in | humidity % | barometer mb |
| 20260902051019 | 74 | 0.0 | 0.0 | 0.00 | 0.00 | 0.00 | 68 | 1018.8 | |
| 20260902050016 | 74 | 0.0 | 0.0 | 0.00 | 0.00 | 0.00 | 68 | 1018.8 | |
| 20260902045113 | 75 | 0.0 | 0.0 | 0.00 | 0.00 | 0.00 | 68 | 1018.9 | |
| 20260902044109 | 75 | 0.0 | 0.0 | 0.00 | 0.00 | 0.00 | 67 | 1018.9 | |
| 20260902043106 | 75 | 0.0 | 0.0 | 0.00 | 0.00 | 0.00 | 67 | 1018.8 | |
| 20260902042103 | 75 | 0.0 | 0.0 | 0.00 | 0.00 | 0.00 | 67 | 1018.8 | |
| 20260902041059 | 75 | 0.0 | 0.0 | 0.00 | 0.00 | 0.00 | 67 | 1018.9 | |
| 20260902040116 | 76 | 0.0 | 0.0 | 0.00 | 0.00 | 0.00 | 66 | 1018.9 | |
| 20260902035052 | 76 | 0.0 | 0.0 | 0.00 | 0.00 | 0.00 | 66 | 1019.0 | |
| 20260902034049 | 76 | 0.0 | 0.0 | 0.00 | 0.00 | 0.00 | 66 | 1019.0 | |
| 20260902033106 | 76 | 0.0 | 0.0 | 0.00 | 0.00 | 0.00 | 66 | 1018.9 | |
| 20260902032042 | 76 | 0.0 | 0.0 | 0.00 | 0.00 | 0.00 | 66 | 1018.8 | |
| 20260902031039 | 77 | 0.0 | 0.0 | 0.00 | 0.00 | 0.00 | 66 | 1018.9 | |
| 20260902030036 | 77 | 0.0 | 0.0 | 0.00 | 0.00 | 0.00 | 66 | 1018.8 | |
| 20260902025032 | 77 | 0.0 | 0.0 | 0.00 | 0.00 | 0.00 | 66 | 1018.9 | |
| 20260902024049 | 77 | 0.0 | 0.0 | 0.00 | 0.00 | 0.00 | 66 | 1018.8 | |
| 20260902023025 | 77 | 0.0 | 0.0 | 0.00 | 0.00 | 0.00 | 66 | 1018.8 | |
| 20260902022022 | 77 | 0.0 | 0.0 | 0.00 | 0.00 | 0.00 | 66 | 1018.7 | |
| 20260902021019 | 78 | 0.0 | 0.0 | 0.00 | 0.00 | 0.00 | 65 | 1018.8 | |
| 20260902020036 | 78 | 0.0 | 0.0 | 0.00 | 0.00 | 0.00 | 65 | 1018.5 | |
| 20260902015112 | 78 | 0.0 | 0.0 | 0.00 | 0.00 | 0.00 | 64 | 1018.4 | |
| 20260902014109 | 79 | 0.0 | 0.0 | 0.00 | 0.00 | 0.00 | 63 | 1018.3 | |
| 20260902013105 | 79 | 0.0 | 0.0 | 0.00 | 0.00 | 0.00 | 62 | 1018.1 | |
| 20260902012102 | 79 | 0.0 | 0.0 | 0.00 | 0.00 | 0.00 | 62 | 1018.1 | |
| 20260902011059 | 80 | 0.0 | 0.0 | 0.00 | 0.00 | 0.00 | 61 | 1018.0 | |
| 20260902010115 | 80 | 0.0 | 0.0 | 0.00 | 0.00 | 0.00 | 61 | 1017.9 | |
| 20260902005051 | 81 | 0.0 | 0.0 | 0.00 | 0.00 | 0.00 | 60 | 1017.7 | |
| 20260902004048 | 82 | 0.0 | 0.0 | 0.00 | 0.00 | 0.00 | 57 | 1017.7 | |
| 20260902003044 | 82 | 0.0 | 0.0 | 0.00 | 0.00 | 0.00 | 55 | 1017.7 | |
| 20260902002041 | 83 | 0.0 | 0.0 | 0.00 | 0.00 | 0.00 | 55 | 1017.8 | |
| 20260902001038 | 84 | 0.0 | 0.0 | 0.00 | 0.00 | 0.00 | 54 | 1017.8 | |
| 20260902000034 | 85 | 0.0 | 0.0 | 0.00 | 0.00 | 0.00 | 51 | 1017.8 | |
| 20260901235031 | 86 | 0.0 | 0.0 | 0.00 | 0.00 | 0.00 | 51 | 1017.8 | |
| 20260901234027 | 86 | 0.0 | 0.0 | 0.00 | 0.00 | 0.00 | 49 | 1017.7 | |
| 20260901233044 | 87 | 0.0 | 0.0 | 0.00 | 0.00 | 0.00 | 48 | 1017.9 | |
| 20260901232021 | 87 | 0.0 | 0.0 | 0.00 | 0.00 | 0.00 | 47 | 1018.0 | |
| 20260901231037 | 88 | 0.0 | 0.0 | 0.00 | 0.00 | 0.00 | 47 | 1018.0 | |
| 20260901230114 | 88 | 0.0 | 0.0 | 0.00 | 0.00 | 0.00 | 47 | 1018.0 | |
| 20260901225131 | 88 | 0.0 | 0.0 | 0.00 | 0.00 | 0.00 | 48 | 1018.0 | |
| 20260901224107 | 89 | 0.0 | 0.0 | 0.00 | 0.00 | 0.00 | 47 | 1018.1 | |
| 20260901223104 | 89 | 0.0 | 0.0 | 0.00 | 0.00 | 0.00 | 45 | 1018.2 | |
| 20260901222100 | 90 | 270 | 1.0 | 2.0 | 0.00 | 0.00 | 0.00 | 44 | 1018.1 |
| 20260901221117 | 89 | 0.0 | 0.0 | 0.00 | 0.00 | 0.00 | 45 | 1018.0 | |
| 20260901220053 | 90 | 0.0 | 0.0 | 0.00 | 0.00 | 0.00 | 44 | 1018.1 | |
| 20260901215050 | 90 | 0.0 | 0.0 | 0.00 | 0.00 | 0.00 | 39 | 1018.1 | |
| 20260901214046 | 91 | 0.0 | 0.0 | 0.00 | 0.00 | 0.00 | 40 | 1017.9 | |
| 20260901213103 | 92 | 0.0 | 0.0 | 0.00 | 0.00 | 0.00 | 40 | 1017.9 | |
| 20260901212039 | 91 | 270 | 1.0 | 3.0 | 0.00 | 0.00 | 0.00 | 40 | 1018.0 |
| 20260901211035 | 91 | 90 | 0.0 | 1.0 | 0.00 | 0.00 | 0.00 | 39 | 1018.2 |
| 20260901210032 | 92 | 338 | 0.0 | 1.0 | 0.00 | 0.00 | 0.00 | 40 | 1018.2 |
| 20260901205029 | 92 | 90 | 0.0 | 2.0 | 0.00 | 0.00 | 0.00 | 40 | 1018.2 |
| 20260901204026 | 92 | 281 | 1.0 | 3.0 | 0.00 | 0.00 | 0.00 | 41 | 1018.3 |
| 20260901203022 | 92 | 270 | 1.0 | 3.0 | 0.00 | 0.00 | 0.00 | 40 | 1018.4 |
| 20260901202139 | 91 | 301 | 2.0 | 3.0 | 0.00 | 0.00 | 0.00 | 40 | 1018.5 |
| 20260901201015 | 91 | 315 | 2.0 | 3.0 | 0.00 | 0.00 | 0.00 | 40 | 1018.5 |
| 20260901200112 | 91 | 270 | 2.0 | 3.0 | 0.00 | 0.00 | 0.00 | 39 | 1018.5 |
| 20260901195109 | 92 | 256 | 1.0 | 1.0 | 0.00 | 0.00 | 0.00 | 39 | 1018.6 |
| 20260901194125 | 91 | 270 | 1.0 | 3.0 | 0.00 | 0.00 | 0.00 | 39 | 1018.7 |
| 20260901193102 | 91 | 270 | 1.0 | 2.0 | 0.00 | 0.00 | 0.00 | 39 | 1018.8 |
| 20260901192118 | 91 | 348 | 2.0 | 3.0 | 0.00 | 0.00 | 0.00 | 39 | 1018.8 |
| 20260901191055 | 91 | 0 | 2.0 | 3.0 | 0.00 | 0.00 | 0.00 | 39 | 1019.0 |
| 20260901190052 | 91 | 270 | 1.0 | 3.0 | 0.00 | 0.00 | 0.00 | 38 | 1019.0 |
| 20260901185048 | 91 | 0 | 1.0 | 2.0 | 0.00 | 0.00 | 0.00 | 39 | 1019.2 |
| 20260901184105 | 91 | 270 | 1.0 | 2.0 | 0.00 | 0.00 | 0.00 | 39 | 1019.1 |
| 20260901183041 | 91 | 270 | 2.0 | 3.0 | 0.00 | 0.00 | 0.00 | 39 | 1019.3 |
| 20260901182038 | 91 | 270 | 2.0 | 3.0 | 0.00 | 0.00 | 0.00 | 39 | 1019.2 |
| 20260901181114 | 90 | 20 | 1.0 | 3.0 | 0.00 | 0.00 | 0.00 | 40 | 1019.3 |
| 20260901180031 | 90 | 328 | 1.0 | 3.0 | 0.00 | 0.00 | 0.00 | 40 | 1019.4 |
| 20260901175047 | 90 | 69 | 2.0 | 3.0 | 0.00 | 0.00 | 0.00 | 39 | 1019.5 |
| 20260901174024 | 90 | 270 | 2.0 | 3.0 | 0.00 | 0.00 | 0.00 | 39 | 1019.5 |
| 20260901173041 | 90 | 3 | 2.0 | 3.0 | 0.00 | 0.00 | 0.00 | 38 | 1019.5 |
| 20260901172017 | 90 | 293 | 2.0 | 4.0 | 0.00 | 0.00 | 0.00 | 41 | 1019.7 |
| 20260901171114 | 90 | 331 | 2.0 | 3.0 | 0.00 | 0.00 | 0.00 | 40 | 1019.8 |
| 20260901170111 | 91 | 0 | 1.0 | 3.0 | 0.00 | 0.00 | 0.00 | 39 | 1019.8 |
| 20260901165127 | 90 | 7 | 1.0 | 3.0 | 0.00 | 0.00 | 0.00 | 39 | 1019.9 |
| 20260901164104 | 91 | 326 | 1.0 | 2.0 | 0.00 | 0.00 | 0.00 | 39 | 1020.1 |
| 20260901163100 | 90 | 27 | 1.0 | 3.0 | 0.00 | 0.00 | 0.00 | 38 | 1020.2 |
| 20260901162057 | 90 | 0 | 1.0 | 3.0 | 0.00 | 0.00 | 0.00 | 39 | 1020.2 |
| 20260901161054 | 89 | 0 | 0.0 | 1.0 | 0.00 | 0.00 | 0.00 | 42 | 1020.3 |
| 20260901160050 | 88 | 23 | 0.0 | 2.0 | 0.00 | 0.00 | 0.00 | 45 | 1020.4 |
| 20260901155047 | 87 | 0 | 1.0 | 2.0 | 0.00 | 0.00 | 0.00 | 47 | 1020.5 |
| 20260901154043 | 86 | 0 | 0.0 | 2.0 | 0.00 | 0.00 | 0.00 | 48 | 1020.6 |
| 20260901153040 | 85 | 4 | 1.0 | 2.0 | 0.00 | 0.00 | 0.00 | 48 | 1020.8 |
| 20260901152037 | 84 | 0 | 1.0 | 3.0 | 0.00 | 0.00 | 0.00 | 48 | 1020.7 |
| 20260901151033 | 83 | 0 | 1.0 | 2.0 | 0.00 | 0.00 | 0.00 | 49 | 1020.9 |
| 20260901150030 | 83 | 0 | 1.0 | 2.0 | 0.00 | 0.00 | 0.00 | 52 | 1021.0 |
| 20260901145026 | 82 | 0.0 | 0.0 | 0.00 | 0.00 | 0.00 | 55 | 1021.1 | |
| 20260901144043 | 82 | 0.0 | 0.0 | 0.00 | 0.00 | 0.00 | 55 | 1021.1 | |
| 20260901143040 | 81 | 0.0 | 0.0 | 0.00 | 0.00 | 0.00 | 58 | 1021.1 | |
| 20260901142016 | 80 | 0.0 | 0.0 | 0.00 | 0.00 | 0.00 | 58 | 1021.0 | |
| 20260901141133 | 79 | 0 | 0.0 | 1.0 | 0.00 | 0.00 | 0.00 | 59 | 1021.0 |
| 20260901140109 | 78 | 0.0 | 1.0 | 0.00 | 0.00 | 0.00 | 60 | 1020.9 | |
| 20260901135106 | 77 | 0.0 | 0.0 | 0.00 | 0.00 | 0.00 | 61 | 1021.0 | |
| 20260901134102 | 76 | 0.0 | 0.0 | 0.00 | 0.00 | 0.00 | 62 | 1020.8 | |
| 20260901133059 | 76 | 0.0 | 0.0 | 0.00 | 0.00 | 0.00 | 65 | 1020.9 | |
| 20260901132056 | 75 | 0.0 | 0.0 | 0.00 | 0.00 | 0.00 | 66 | 1020.8 | |
| 20260901131052 | 74 | 0.0 | 0.0 | 0.00 | 0.00 | 0.00 | 70 | 1020.8 | |
| 20260901130049 | 73 | 0.0 | 0.0 | 0.00 | 0.00 | 0.00 | 82 | 1020.9 | |
| 20260901125045 | 72 | 0.0 | 0.0 | 0.00 | 0.00 | 0.00 | 88 | 1020.8 | |
| 20260901124102 | 72 | 0 | 1.0 | 1.0 | 0.00 | 0.00 | 0.00 | 93 | 1020.6 |
| 20260901123038 | 71 | 0.0 | 0.0 | 0.00 | 0.00 | 0.00 | 94 | 1020.7 | |
| 20260901122035 | 71 | 0.0 | 0.0 | 0.00 | 0.00 | 0.00 | 94 | 1020.6 | |
| 20260901121032 | 70 | 0.0 | 0.0 | 0.00 | 0.00 | 0.00 | 93 | 1020.6 | |
| 20260901120028 | 70 | 0.0 | 0.0 | 0.00 | 0.00 | 0.00 | 93 | 1020.5 | |
| 20260901115044 | 70 | 0.0 | 0.0 | 0.00 | 0.00 | 0.00 | 93 | 1020.4 | |
| 20260901114021 | 70 | 0.0 | 0.0 | 0.00 | 0.00 | 0.00 | 93 | 1020.3 | |
| 20260901113018 | 70 | 0.0 | 0.0 | 0.00 | 0.00 | 0.00 | 93 | 1020.2 | |
| 20260901112114 | 70 | 0.0 | 0.0 | 0.00 | 0.00 | 0.00 | 92 | 1020.2 | |
| 20260901111111 | 70 | 0.0 | 0.0 | 0.00 | 0.00 | 0.00 | 92 | 1020.1 | |
| 20260901110108 | 70 | 0.0 | 0.0 | 0.00 | 0.00 | 0.00 | 92 | 1020.0 | |
| 20260901105104 | 70 | 0.0 | 0.0 | 0.00 | 0.00 | 0.00 | 91 | 1019.9 | |
| 20260901104101 | 70 | 0.0 | 0.0 | 0.00 | 0.00 | 0.00 | 92 | 1019.8 | |
| 20260901103058 | 70 | 0.0 | 0.0 | 0.00 | 0.00 | 0.00 | 92 | 1019.7 | |
| 20260901102054 | 70 | 0.0 | 0.0 | 0.00 | 0.00 | 0.00 | 92 | 1019.7 | |
| 20260901101053 | 70 | 0.0 | 0.0 | 0.00 | 0.00 | 0.00 | 91 | 1019.5 | |
| 20260901100047 | 70 | 0.0 | 0.0 | 0.00 | 0.00 | 0.00 | 91 | 1019.5 | |
| 20260901095044 | 70 | 0.0 | 0.0 | 0.00 | 0.00 | 0.00 | 91 | 1019.4 | |
| 20260901094040 | 70 | 0.0 | 0.0 | 0.00 | 0.00 | 0.00 | 91 | 1019.2 | |
| 20260901093036 | 71 | 0.0 | 0.0 | 0.00 | 0.00 | 0.00 | 91 | 1019.3 | |
| 20260901092053 | 71 | 0.0 | 0.0 | 0.00 | 0.00 | 0.00 | 91 | 1019.3 | |
| 20260901091029 | 71 | 0.0 | 0.0 | 0.00 | 0.00 | 0.00 | 90 | 1019.5 | |
| 20260901090026 | 71 | 0.0 | 0.0 | 0.00 | 0.00 | 0.00 | 89 | 1019.3 | |
| 20260901085023 | 71 | 0.0 | 0.0 | 0.00 | 0.00 | 0.00 | 89 | 1019.3 | |
| 20260901084019 | 71 | 0.0 | 0.0 | 0.00 | 0.00 | 0.00 | 89 | 1019.4 | |
| 20260901083016 | 71 | 0.0 | 0.0 | 0.00 | 0.00 | 0.00 | 88 | 1019.5 | |
| 20260901082133 | 71 | 0.0 | 0.0 | 0.00 | 0.00 | 0.00 | 88 | 1019.6 | |
| 20260901081109 | 71 | 0.0 | 0.0 | 0.00 | 0.00 | 0.00 | 87 | 1019.5 | |
| 20260901080106 | 71 | 0.0 | 0.0 | 0.00 | 0.00 | 0.00 | 87 | 1019.6 | |
| 20260901075103 | 71 | 0.0 | 0.0 | 0.00 | 0.00 | 0.00 | 87 | 1019.6 | |
| 20260901074119 | 71 | 0.0 | 0.0 | 0.00 | 0.00 | 0.00 | 86 | 1019.7 | |
| 20260901073056 | 72 | 0.0 | 0.0 | 0.00 | 0.00 | 0.00 | 87 | 1019.9 | |
| 20260901072052 | 71 | 0.0 | 0.0 | 0.00 | 0.00 | 0.00 | 86 | 1019.8 | |
| 20260901071109 | 71 | 0.0 | 0.0 | 0.00 | 0.00 | 0.00 | 85 | 1019.8 | |
| 20260901070045 | 71 | 0.0 | 0.0 | 0.00 | 0.00 | 0.00 | 85 | 1019.9 | |
| 20260901065042 | 72 | 0.0 | 0.0 | 0.00 | 0.00 | 0.00 | 85 | 1019.9 | |
| 20260901064038 | 72 | 0.0 | 0.0 | 0.00 | 0.00 | 0.00 | 83 | 1019.9 | |
| 20260901063035 | 72 | 0.0 | 0.0 | 0.00 | 0.00 | 0.00 | 83 | 1020.1 | |
| 20260901062031 | 72 | 0.0 | 0.0 | 0.00 | 0.00 | 0.00 | 83 | 1020.1 | |
| 20260901061028 | 72 | 0.0 | 0.0 | 0.00 | 0.00 | 0.00 | 80 | 1020.2 | |
| 20260901060024 | 73 | 0.0 | 0.0 | 0.00 | 0.00 | 0.00 | 79 | 1020.1 | |
| 20260901055021 | 73 | 0.0 | 0.0 | 0.00 | 0.00 | 0.00 | 79 | 1020.1 | |
| 20260901054017 | 73 | 0.0 | 0.0 | 0.00 | 0.00 | 0.00 | 78 | 1020.2 | |
| 20260901053114 | 73 | 0.0 | 0.0 | 0.00 | 0.00 | 0.00 | 77 | 1020.1 | |
| 20260901052111 | 73 | 0.0 | 0.0 | 0.00 | 0.00 | 0.00 | 74 | 1020.4 |